Time,TemperatureF,DewpointF,PressureIn,WindDirection,WindDirectionDegrees,WindSpeedMPH,WindSpeedGustMPH,Humidity,HourlyPrecipIn,Conditions,Clouds,dailyrainin,SoftwareType,DateUTC
2013-01-11 00:03:00,29.0,25.0,30.41,North,352,0.0,1.0,84,0.00,,,0.00,,2013-01-11 05:03:00,
2013-01-11 00:13:00,29.0,25.0,30.41,North,352,0.0,1.0,84,0.00,,,0.00,,2013-01-11 05:13:00,
2013-01-11 00:22:00,29.0,26.0,30.42,North,352,0.0,0.0,87,0.00,,,0.00,,2013-01-11 05:22:00,
2013-01-11 00:33:00,28.0,25.0,30.42,North,349,0.0,0.0,88,0.00,,,0.00,,2013-01-11 05:33:00,
2013-01-11 00:43:00,28.0,25.0,30.42,North,349,0.0,0.0,88,0.00,,,0.00,,2013-01-11 05:43:00,
2013-01-11 00:53:00,28.0,25.0,30.41,NW,326,0.0,0.0,87,0.00,,,0.00,,2013-01-11 05:53:00,
2013-01-11 01:03:00,27.0,25.0,30.40,WNW,295,0.0,1.0,91,0.00,,,0.00,,2013-01-11 06:03:00,
2013-01-11 01:12:00,27.0,25.0,30.40,WNW,295,0.0,1.0,91,0.00,,,0.00,,2013-01-11 06:12:00,
2013-01-11 01:22:00,27.0,24.0,30.40,NW,305,0.0,0.0,90,0.00,,,0.00,,2013-01-11 06:22:00,
2013-01-11 01:32:00,26.0,23.0,30.40,WNW,302,0.0,1.0,90,0.00,,,0.00,,2013-01-11 06:32:00,
2013-01-11 01:42:00,26.0,23.0,30.40,WNW,302,0.0,1.0,90,0.00,,,0.00,,2013-01-11 06:42:00,
2013-01-11 01:52:00,25.0,23.0,30.40,WNW,291,0.0,0.0,92,0.00,,,0.00,,2013-01-11 06:52:00,
2013-01-11 02:02:00,24.0,22.0,30.40,SW,226,0.0,0.0,93,0.00,,,0.00,,2013-01-11 07:02:00,
2013-01-11 02:12:00,24.0,23.0,30.40,SW,226,0.0,0.0,94,0.00,,,0.00,,2013-01-11 07:12:00,
2013-01-11 02:22:00,24.0,23.0,30.40,SW,226,0.0,0.0,94,0.00,,,0.00,,2013-01-11 07:22:00,
2013-01-11 02:32:00,24.0,23.0,30.39,SW,219,0.0,0.0,95,0.00,,,0.00,,2013-01-11 07:32:00,
2013-01-11 02:42:00,24.0,23.0,30.38,WNW,301,0.0,0.0,95,0.00,,,0.00,,2013-01-11 07:42:00,
2013-01-11 02:52:00,24.0,23.0,30.38,WNW,301,0.0,0.0,95,0.00,,,0.00,,2013-01-11 07:52:00,
2013-01-11 03:02:00,24.0,23.0,30.37,NW,306,0.0,0.0,96,0.00,,,0.00,,2013-01-11 08:02:00,
2013-01-11 03:12:00,24.0,23.0,30.37,NW,306,0.0,0.0,95,0.00,,,0.00,,2013-01-11 08:12:00,
2013-01-11 03:22:00,24.0,23.0,30.37,NW,306,0.0,0.0,95,0.00,,,0.00,,2013-01-11 08:22:00,
2013-01-11 03:32:00,23.0,22.0,30.37,WNW,301,0.0,0.0,96,0.00,,,0.00,,2013-01-11 08:32:00,
2013-01-11 03:42:00,23.0,22.0,30.37,WNW,301,0.0,0.0,96,0.00,,,0.00,,2013-01-11 08:42:00,
2013-01-11 03:53:00,22.0,21.0,30.36,West,268,0.0,0.0,96,0.00,,,0.00,,2013-01-11 08:53:00,
2013-01-11 04:02:00,22.0,22.0,30.37,WNW,292,0.0,0.0,98,0.00,,,0.00,,2013-01-11 09:02:00,
2013-01-11 04:12:00,22.0,22.0,30.37,WNW,292,0.0,0.0,98,0.00,,,0.00,,2013-01-11 09:12:00,
2013-01-11 04:23:00,22.0,22.0,30.36,WNW,285,0.0,0.0,98,0.00,,,0.00,,2013-01-11 09:23:00,
2013-01-11 04:32:00,22.0,22.0,30.36,WNW,284,0.0,0.0,100,0.00,,,0.00,,2013-01-11 09:32:00,
2013-01-11 04:42:00,22.0,22.0,30.36,WNW,284,0.0,0.0,100,0.00,,,0.00,,2013-01-11 09:42:00,
2013-01-11 04:52:00,22.0,22.0,30.36,WNW,282,0.0,0.0,100,0.00,,,0.00,,2013-01-11 09:52:00,
2013-01-11 05:02:00,22.0,22.0,30.35,WNW,288,0.0,0.0,100,0.00,,,0.00,,2013-01-11 10:02:00,
2013-01-11 05:12:00,22.0,22.0,30.35,WNW,288,0.0,0.0,100,0.00,,,0.00,,2013-01-11 10:12:00,
2013-01-11 05:22:00,22.0,22.0,30.36,WNW,292,0.0,0.0,100,0.00,,,0.00,,2013-01-11 10:22:00,
2013-01-11 05:32:00,22.0,22.0,30.36,WNW,294,0.0,0.0,100,0.00,,,0.00,,2013-01-11 10:32:00,
2013-01-11 05:42:00,22.0,22.0,30.36,WNW,294,0.0,0.0,100,0.00,,,0.00,,2013-01-11 10:42:00,
2013-01-11 05:53:00,21.0,21.0,30.37,WNW,295,0.0,0.0,100,0.00,,,0.00,,2013-01-11 10:53:00,
2013-01-11 06:03:00,21.0,21.0,30.36,WNW,291,0.0,0.0,100,0.00,,,0.00,,2013-01-11 11:03:00,
2013-01-11 06:12:00,21.0,21.0,30.36,WNW,291,0.0,0.0,100,0.00,,,0.00,,2013-01-11 11:12:00,
2013-01-11 06:22:00,21.0,21.0,30.37,WNW,289,0.0,0.0,100,0.00,,,0.00,,2013-01-11 11:22:00,
2013-01-11 06:33:00,22.0,22.0,30.37,North,356,0.0,0.0,100,0.00,,,0.00,,2013-01-11 11:33:00,
2013-01-11 06:42:00,22.0,22.0,30.37,North,356,0.0,0.0,100,0.00,,,0.00,,2013-01-11 11:42:00,
2013-01-11 06:53:00,22.0,22.0,30.37,North,357,0.0,0.0,100,0.00,,,0.00,,2013-01-11 11:53:00,
2013-01-11 07:03:00,22.0,22.0,30.37,North,356,0.0,0.0,100,0.00,,,0.00,,2013-01-11 12:03:00,
2013-01-11 07:12:00,22.0,22.0,30.37,North,356,0.0,0.0,100,0.00,,,0.00,,2013-01-11 12:12:00,
2013-01-11 07:22:00,22.0,22.0,30.37,North,357,0.0,0.0,100,0.00,,,0.00,,2013-01-11 12:22:00,
2013-01-11 07:33:00,22.0,22.0,30.38,North,356,0.0,0.0,100,0.00,,,0.00,,2013-01-11 12:33:00,
2013-01-11 07:42:00,22.0,22.0,30.38,North,356,0.0,0.0,100,0.00,,,0.00,,2013-01-11 12:42:00,
2013-01-11 07:53:00,23.0,23.0,30.37,North,357,0.0,0.0,100,0.00,,,0.00,,2013-01-11 12:53:00,
2013-01-11 08:03:00,23.0,23.0,30.36,North,356,0.0,0.0,100,0.00,,,0.00,,2013-01-11 13:03:00,
2013-01-11 08:13:00,23.0,23.0,30.36,North,356,0.0,0.0,100,0.00,,,0.00,,2013-01-11 13:13:00,
2013-01-11 08:22:00,23.0,23.0,30.36,North,356,0.0,0.0,100,0.00,,,0.00,,2013-01-11 13:22:00,
2013-01-11 08:33:00,24.0,24.0,30.37,North,356,0.0,0.0,100,0.00,,,0.00,,2013-01-11 13:33:00,
2013-01-11 08:42:00,24.0,24.0,30.37,North,356,0.0,0.0,100,0.00,,,0.00,,2013-01-11 13:42:00,
2013-01-11 08:53:00,25.0,25.0,30.37,North,357,0.0,0.0,100,0.00,,,0.00,,2013-01-11 13:53:00,
2013-01-11 09:03:00,25.0,25.0,30.36,North,357,0.0,2.0,99,0.00,,,0.00,,2013-01-11 14:03:00,
2013-01-11 09:12:00,25.0,25.0,30.36,North,357,0.0,0.0,99,0.00,,,0.00,,2013-01-11 14:12:00,
2013-01-11 09:23:00,25.0,25.0,30.36,North,357,0.0,0.0,99,0.00,,,0.00,,2013-01-11 14:23:00,
2013-01-11 09:33:00,26.0,25.0,30.36,North,357,0.0,1.0,97,0.00,,,0.00,,2013-01-11 14:33:00,
2013-01-11 09:43:00,27.0,26.0,30.35,North,357,0.0,0.0,95,0.00,,,0.00,,2013-01-11 14:43:00,
2013-01-11 09:53:00,27.0,26.0,30.35,North,357,0.0,0.0,95,0.00,,,0.00,,2013-01-11 14:53:00,
2013-01-11 10:03:00,28.0,26.0,30.35,North,357,0.0,0.0,91,0.00,,,0.00,,2013-01-11 15:03:00,
2013-01-11 10:13:00,29.0,25.0,30.34,North,357,0.0,0.0,85,0.00,,,0.00,,2013-01-11 15:13:00,
2013-01-11 10:23:00,29.0,25.0,30.34,North,357,0.0,0.0,85,0.00,,,0.00,,2013-01-11 15:23:00,
2013-01-11 10:33:00,30.0,25.0,30.33,North,356,0.0,0.0,82,0.00,,,0.00,,2013-01-11 15:33:00,
2013-01-11 10:43:00,30.0,25.0,30.33,North,356,0.0,0.0,82,0.00,,,0.00,,2013-01-11 15:43:00,
2013-01-11 10:53:00,31.0,26.0,30.32,North,356,0.0,0.0,80,0.00,,,0.00,,2013-01-11 15:53:00,
2013-01-11 11:03:00,32.0,26.0,30.31,North,357,0.0,0.0,79,0.00,,,0.00,,2013-01-11 16:03:00,
2013-01-11 11:12:00,32.0,27.0,30.30,North,356,0.0,0.0,80,0.00,,,0.00,,2013-01-11 16:12:00,
2013-01-11 11:23:00,32.0,27.0,30.30,North,356,0.0,0.0,80,0.00,,,0.00,,2013-01-11 16:23:00,
2013-01-11 11:33:00,33.0,27.0,30.30,North,356,0.0,1.0,78,0.00,,,0.00,,2013-01-11 16:33:00,
2013-01-11 11:43:00,34.0,28.0,30.29,North,356,0.0,0.0,77,0.00,,,0.00,,2013-01-11 16:43:00,
2013-01-11 11:53:00,34.0,28.0,30.29,North,356,0.0,0.0,77,0.00,,,0.00,,2013-01-11 16:53:00,
2013-01-11 12:03:00,34.0,28.0,30.29,North,356,0.0,0.0,78,0.00,,,0.00,,2013-01-11 17:03:00,
2013-01-11 12:12:00,34.0,28.0,30.28,North,356,0.0,2.0,78,0.00,,,0.00,,2013-01-11 17:12:00,
2013-01-11 12:22:00,34.0,28.0,30.28,North,356,0.0,2.0,78,0.00,,,0.00,,2013-01-11 17:22:00,
2013-01-11 12:33:00,34.0,28.0,30.27,NE,51,0.0,2.0,77,0.00,,,0.00,,2013-01-11 17:33:00,
2013-01-11 12:43:00,34.0,28.0,30.27,NE,51,0.0,2.0,77,0.00,,,0.00,,2013-01-11 17:43:00,
2013-01-11 12:53:00,35.0,28.0,30.26,NE,51,0.0,0.0,76,0.00,,,0.00,,2013-01-11 17:53:00,
2013-01-11 13:03:00,36.0,29.0,30.25,NE,34,0.0,1.0,74,0.00,,,0.00,,2013-01-11 18:03:00,
2013-01-11 13:13:00,36.0,29.0,30.25,NE,34,0.0,1.0,74,0.00,,,0.00,,2013-01-11 18:13:00,
2013-01-11 13:23:00,37.0,28.0,30.25,NE,34,0.0,0.0,70,0.00,,,0.00,,2013-01-11 18:23:00,
2013-01-11 13:33:00,38.0,29.0,30.24,SSE,151,0.0,2.0,69,0.00,,,0.00,,2013-01-11 18:33:00,
2013-01-11 13:43:00,38.0,29.0,30.24,SSE,151,0.0,2.0,69,0.00,,,0.00,,2013-01-11 18:43:00,
2013-01-11 13:53:00,38.0,28.0,30.23,SSE,147,0.0,2.0,68,0.00,,,0.00,,2013-01-11 18:53:00,
2013-01-11 14:03:00,38.0,29.0,30.22,SE,145,0.0,3.0,71,0.00,,,0.00,,2013-01-11 19:03:00,
2013-01-11 14:12:00,38.0,29.0,30.22,SE,145,0.0,3.0,71,0.00,,,0.00,,2013-01-11 19:12:00,
2013-01-11 14:22:00,37.0,28.0,30.22,SE,144,2.0,3.0,71,0.00,,,0.00,,2013-01-11 19:22:00,
2013-01-11 14:32:00,38.0,30.0,30.22,SE,133,0.0,2.0,72,0.00,,,0.00,,2013-01-11 19:32:00,
2013-01-11 14:43:00,38.0,30.0,30.22,SE,133,0.0,2.0,72,0.00,,,0.00,,2013-01-11 19:43:00,
2013-01-11 14:54:00,38.0,29.0,30.21,SE,131,0.0,0.0,71,0.00,,,0.00,,2013-01-11 19:54:00,
2013-01-11 15:03:00,38.0,29.0,30.20,SE,133,0.0,3.0,71,0.00,,,0.00,,2013-01-11 20:03:00,
2013-01-11 15:12:00,38.0,29.0,30.20,SE,133,0.0,3.0,71,0.00,,,0.00,,2013-01-11 20:12:00,
2013-01-11 15:22:00,37.0,29.0,30.20,SE,131,0.0,2.0,73,0.00,,,0.00,,2013-01-11 20:22:00,
2013-01-11 15:33:00,37.0,29.0,30.19,SSE,167,0.0,2.0,74,0.00,,,0.00,,2013-01-11 20:33:00,
2013-01-11 15:43:00,37.0,29.0,30.19,SSE,167,0.0,2.0,74,0.00,,,0.00,,2013-01-11 20:43:00,
2013-01-11 15:53:00,37.0,30.0,30.19,SE,136,0.0,3.0,75,0.00,,,0.00,,2013-01-11 20:53:00,
2013-01-11 16:03:00,37.0,30.0,30.18,SE,133,0.0,6.0,76,0.00,,,0.00,,2013-01-11 21:03:00,
2013-01-11 16:12:00,37.0,30.0,30.17,SE,128,0.0,0.0,76,0.00,,,0.00,,2013-01-11 21:12:00,
2013-01-11 16:23:00,37.0,30.0,30.17,SE,128,0.0,0.0,76,0.00,,,0.00,,2013-01-11 21:23:00,
2013-01-11 16:33:00,37.0,30.0,30.17,SSE,151,0.0,3.0,77,0.00,,,0.00,,2013-01-11 21:33:00,
2013-01-11 16:42:00,37.0,30.0,30.17,SSE,151,0.0,3.0,77,0.00,,,0.00,,2013-01-11 21:42:00,
2013-01-11 16:53:00,36.0,30.0,30.17,South,185,0.0,2.0,78,0.00,,,0.00,,2013-01-11 21:53:00,
2013-01-11 17:02:00,36.0,30.0,30.16,WSW,248,0.0,0.0,78,0.00,,,0.00,,2013-01-11 22:02:00,
2013-01-11 17:12:00,36.0,31.0,30.16,WSW,240,0.0,0.0,82,0.00,,,0.00,,2013-01-11 22:12:00,
2013-01-11 17:22:00,36.0,31.0,30.16,WSW,240,0.0,0.0,82,0.00,,,0.00,,2013-01-11 22:22:00,
2013-01-11 17:33:00,36.0,33.0,30.15,SW,229,0.0,0.0,87,0.00,,,0.00,,2013-01-11 22:33:00,
2013-01-11 17:42:00,36.0,33.0,30.15,SW,229,0.0,0.0,87,0.00,,,0.00,,2013-01-11 22:42:00,
2013-01-11 17:53:00,35.0,33.0,30.15,SW,229,0.0,0.0,93,0.00,,,0.00,,2013-01-11 22:53:00,
2013-01-11 18:02:00,34.0,33.0,30.14,WSW,247,0.0,0.0,96,0.00,,,0.00,,2013-01-11 23:02:00,
2013-01-11 18:13:00,34.0,34.0,30.13,WSW,250,0.0,0.0,98,0.00,,,0.00,,2013-01-11 23:13:00,
2013-01-11 18:23:00,34.0,34.0,30.13,WSW,250,0.0,0.0,98,0.00,,,0.00,,2013-01-11 23:23:00,
2013-01-11 18:32:00,33.0,33.0,30.13,WSW,253,0.0,0.0,100,0.00,,,0.00,,2013-01-11 23:32:00,
2013-01-11 18:43:00,33.0,33.0,30.13,WSW,253,0.0,0.0,100,0.00,,,0.00,,2013-01-11 23:43:00,
2013-01-11 18:53:00,33.0,33.0,30.13,WSW,253,0.0,0.0,100,0.00,,,0.00,,2013-01-11 23:53:00,
2013-01-11 19:02:00,33.0,33.0,30.12,WSW,256,0.0,0.0,100,0.00,,,0.00,,2013-01-12 00:02:00,
2013-01-11 19:12:00,33.0,33.0,30.12,West,265,0.0,0.0,100,0.00,,,0.00,,2013-01-12 00:12:00,
2013-01-11 19:23:00,33.0,33.0,30.12,West,265,0.0,0.0,100,0.00,,,0.00,,2013-01-12 00:23:00,
2013-01-11 19:33:00,33.0,33.0,30.12,West,265,0.0,0.0,100,0.00,,,0.00,,2013-01-12 00:33:00,
2013-01-11 19:43:00,33.0,33.0,30.12,West,265,0.0,0.0,100,0.00,,,0.00,,2013-01-12 00:43:00,
2013-01-11 19:53:00,33.0,33.0,30.11,West,267,0.0,0.0,100,0.00,,,0.00,,2013-01-12 00:53:00,
2013-01-11 20:02:00,33.0,33.0,30.11,West,270,0.0,0.0,100,0.00,,,0.00,,2013-01-12 01:02:00,
2013-01-11 20:12:00,33.0,33.0,30.11,West,270,0.0,0.0,100,0.00,,,0.00,,2013-01-12 01:12:00,
2013-01-11 20:22:00,33.0,33.0,30.11,West,270,0.0,0.0,100,0.00,,,0.00,,2013-01-12 01:22:00,
2013-01-11 20:33:00,33.0,33.0,30.10,West,268,0.0,0.0,100,0.00,,,0.00,,2013-01-12 01:33:00,
2013-01-11 20:43:00,33.0,33.0,30.10,West,268,0.0,0.0,100,0.00,,,0.00,,2013-01-12 01:43:00,
2013-01-11 20:53:00,33.0,33.0,30.09,West,268,0.0,0.0,100,0.00,,,0.00,,2013-01-12 01:53:00,
2013-01-11 21:02:00,33.0,33.0,30.09,West,268,0.0,0.0,100,0.00,,,0.00,,2013-01-12 02:02:00,
2013-01-11 21:12:00,33.0,33.0,30.09,West,268,0.0,0.0,100,0.00,,,0.00,,2013-01-12 02:12:00,
2013-01-11 21:22:00,33.0,33.0,30.09,West,268,0.0,0.0,100,0.00,,,0.00,,2013-01-12 02:22:00,
2013-01-11 21:33:00,33.0,33.0,30.08,West,267,0.0,0.0,100,0.00,,,0.00,,2013-01-12 02:33:00,
2013-01-11 21:43:00,33.0,33.0,30.08,West,267,0.0,0.0,100,0.00,,,0.00,,2013-01-12 02:43:00,
2013-01-11 21:53:00,33.0,33.0,30.07,West,270,0.0,0.0,100,0.00,,,0.00,,2013-01-12 02:53:00,
2013-01-11 22:03:00,33.0,33.0,30.08,West,268,0.0,1.0,100,0.00,,,0.00,,2013-01-12 03:03:00,
2013-01-11 22:12:00,33.0,33.0,30.08,West,268,0.0,1.0,100,0.00,,,0.00,,2013-01-12 03:12:00,
2013-01-11 22:22:00,33.0,33.0,30.10,West,268,0.0,0.0,100,0.00,,,0.00,,2013-01-12 03:22:00,
2013-01-11 22:33:00,33.0,33.0,30.10,West,268,0.0,0.0,100,0.00,,,0.00,,2013-01-12 03:33:00,
2013-01-11 22:43:00,33.0,33.0,30.10,West,268,0.0,0.0,100,0.00,,,0.00,,2013-01-12 03:43:00,
2013-01-11 22:53:00,33.0,33.0,30.10,West,268,0.0,0.0,100,0.00,,,0.00,,2013-01-12 03:53:00,
2013-01-11 23:02:00,33.0,33.0,30.09,West,267,0.0,0.0,100,0.00,,,0.00,,2013-01-12 04:02:00,
2013-01-11 23:12:00,33.0,33.0,30.10,West,267,0.0,0.0,100,0.00,,,0.00,,2013-01-12 04:12:00,
2013-01-11 23:22:00,33.0,33.0,30.10,West,267,0.0,0.0,100,0.00,,,0.00,,2013-01-12 04:22:00,
2013-01-11 23:32:00,33.0,33.0,30.09,West,267,0.0,0.0,100,0.00,,,0.00,,2013-01-12 04:32:00,
2013-01-11 23:42:00,33.0,33.0,30.09,West,267,0.0,0.0,100,0.00,,,0.00,,2013-01-12 04:42:00,
2013-01-11 23:52:00,33.0,33.0,30.08,West,268,0.0,0.0,100,0.00,,,0.00,,2013-01-12 04:52:00,